Air Resources Laboratory banner image
Air Resources Laboratory web site National Oceanic and Atmospheric Administration (NOAA)

oh roundup


Office: CLE

ASUS41 KCLE 220100
RWRCLE
OHIO REGIONAL WEATHER ROUNDUP
NATIONAL WEATHER SERVICE WILMINGTON, OH
900 PM EDT SUN OCT 21 2018

NOTE: "FAIR" INDICATES FEW OR NO CLOUDS BELOW 12,000 FEET WITH NO
SIGNIFICANT WEATHER AND/OR OBSTRUCTIONS TO VISIBILITY.

OHZ001>008-015>018-024>027-034-035-043-044-220200-
   NORTHWEST OHIO

CITY           SKY/WX    TMP DP  RH WIND       PRES   REMARKS
DEFIANCE       FAIR      38  30  73 S5        30.17F
FINDLAY        FAIR      35  29  78 S8        30.17F WCI  29
TOLEDO EXPRESS FAIR      38  30  73 S5        30.16F
TOLEDO EXEC    FAIR      37  30  75 S6        30.18F
LIMA           FAIR      38  30  73 S7        30.19F
$$

OHZ009>014-019>023-028>033-038-089-220200-
   NORTHEAST OHIO

CITY           SKY/WX    TMP DP  RH WIND       PRES   REMARKS
CLE-HOPKINS    FAIR      35  30  82 S8        30.21F WCI  29
CLE-LAKEFRONT  FAIR      38  28  67 SE12      30.19F
CUY CO. ARPT   PTCLDY    34  30  86 S9        30.20F WCI  26
LORAIN-ELYRIA  FAIR      34  26  72 VRB3      30.19F
ASHTABULA      CLOUDY    38  30  73 SW8       30.20S
AKRON-CANTON   FAIR      34  27  75 S7        30.22S WCI  28
WOOSTER        NOT AVBL
MANSFIELD      FAIR      35  28  75 S7        30.19F WCI  29
YOUNGSTOWN     FAIR      33  28  81 S5        30.21F WCI  29
$$

OHZ042-051>053-060>062-070>072-077>081-220200-
  SOUTHWEST OHIO

CITY           SKY/WX    TMP DP  RH WIND       PRES   REMARKS
CINC-COVINGTON FAIR      39  32  76 S6        30.24F
CINC-LUNKEN    FAIR      38  36  92 CALM      30.27F
HAMILTON       FAIR      34  30  85 CALM      30.25F
DAYTON         NOT AVBL
WRIGHT-PAT AFB NOT AVBL
DAYTON GENERAL FAIR      40  30  67 S6        30.22F
WILMINGTON     FAIR      36  30  79 S3        30.23F
$$

OHZ036-037-039>041-045>050-054>059-063>069-073>076-082>088-220200-
  CENTRAL AND SOUTHEAST OHIO

CITY           SKY/WX    TMP DP  RH WIND       PRES   REMARKS
COLUMBUS       FAIR      42  29  59 SW3       30.24S
OSU AIRPORT    FAIR      39  30  70 S5        30.23F
BOLTON FIELD   NOT AVBL
RICKENBACK AFB NOT AVBL
NEWARK         FAIR      35  30  82 CALM      30.23F
MARION         FAIR      37  29  72 S5        30.22S
LANCASTER      FAIR      36  30  79 CALM      30.25F
ZANESVILLE     FAIR      35  29  78 S5        30.24F
NEW PHILLY     FAIR      33  30  88 CALM      30.24S
$$


ASUS41 KCLE 220102
RWRCLE
OHIO REGIONAL WEATHER ROUNDUP
NATIONAL WEATHER SERVICE CLEVELAND, OH
900 PM EDT SUN OCT 21 2018

NOTE: "FAIR" INDICATES FEW OR NO CLOUDS BELOW 12,000 FEET WITH NO
SIGNIFICANT WEATHER AND/OR OBSTRUCTIONS TO VISIBILITY.

OHZ001>008-015>018-024>027-034-035-043-044-220200-
   NORTHWEST OHIO

CITY           SKY/WX    TMP DP  RH WIND       PRES   REMARKS
DEFIANCE       FAIR      38  30  73 S5        30.17F
FINDLAY        FAIR      35  29  78 S8        30.17F WCI  29
TOLEDO EXPRESS FAIR      38  30  73 S5        30.16F
TOLEDO EXEC    FAIR      37  30  75 S6        30.18F
LIMA           FAIR      38  30  73 S7        30.19F
$$

OHZ009>014-019>023-028>033-038-089-220200-
   NORTHEAST OHIO

CITY           SKY/WX    TMP DP  RH WIND       PRES   REMARKS
CLE-HOPKINS    FAIR      35  30  82 S8        30.21F WCI  29
CLE-LAKEFRONT  FAIR      38  28  67 SE12      30.19F
CUY CO. ARPT   PTCLDY    34  30  86 S9        30.20F WCI  26
LORAIN-ELYRIA  FAIR      34  26  72 VRB3      30.19F
ASHTABULA      CLOUDY    38  30  73 SW8       30.20S
AKRON-CANTON   FAIR      34  27  75 S7        30.22S WCI  28
WOOSTER        FAIR      31  29  92 CALM      30.22S
MANSFIELD      FAIR      35  28  75 S7        30.19F WCI  29
YOUNGSTOWN     FAIR      33  28  81 S5        30.21F WCI  29
$$

OHZ042-051>053-060>062-070>072-077>081-220200-
  SOUTHWEST OHIO

CITY           SKY/WX    TMP DP  RH WIND       PRES   REMARKS
CINC-COVINGTON FAIR      39  32  76 S6        30.24F
CINC-LUNKEN    FAIR      38  36  92 CALM      30.27F
HAMILTON       FAIR      34  30  85 CALM      30.25F
DAYTON         FAIR      41  30  65 S7        30.22F
WRIGHT-PAT AFB FAIR      39  30  69 S6        30.22F
DAYTON GENERAL FAIR      40  30  67 S6        30.22F
WILMINGTON     FAIR      36  30  79 S3        30.23F
$$

OHZ036-037-039>041-045>050-054>059-063>069-073>076-082>088-220200-
  CENTRAL AND SOUTHEAST OHIO

CITY           SKY/WX    TMP DP  RH WIND       PRES   REMARKS
COLUMBUS       FAIR      42  29  59 SW3       30.24S
OSU AIRPORT    FAIR      39  30  70 S5        30.23F
BOLTON FIELD   FAIR      36  30  77 SW5       30.24S
RICKENBACK AFB FAIR      38  29  70 SW6       30.24F
NEWARK         FAIR      35  30  82 CALM      30.23F
MARION         FAIR      37  29  72 S5        30.22S
LANCASTER      FAIR      36  30  79 CALM      30.25F
ZANESVILLE     FAIR      35  29  78 S5        30.24F
NEW PHILLY     NOT AVBL
$$


ASUS41 KCLE 220110
RWRCLE
OHIO REGIONAL WEATHER ROUNDUP
NATIONAL WEATHER SERVICE CLEVELAND, OH
900 PM EDT SUN OCT 21 2018

NOTE: "FAIR" INDICATES FEW OR NO CLOUDS BELOW 12,000 FEET WITH NO
SIGNIFICANT WEATHER AND/OR OBSTRUCTIONS TO VISIBILITY.

OHZ001>008-015>018-024>027-034-035-043-044-220200-
   NORTHWEST OHIO

CITY           SKY/WX    TMP DP  RH WIND       PRES   REMARKS
DEFIANCE       FAIR      38  30  73 S5        30.17F
FINDLAY        FAIR      35  29  78 S8        30.17F WCI  29
TOLEDO EXPRESS FAIR      38  30  73 S5        30.16F
TOLEDO EXEC    FAIR      37  30  75 S6        30.18F
LIMA           FAIR      38  30  73 S7        30.19F
$$

OHZ009>014-019>023-028>033-038-089-220200-
   NORTHEAST OHIO

CITY           SKY/WX    TMP DP  RH WIND       PRES   REMARKS
CLE-HOPKINS    FAIR      35  30  82 S8        30.21F WCI  29
CLE-LAKEFRONT  FAIR      38  28  67 SE12      30.19F
CUY CO. ARPT   PTCLDY    34  30  86 S9        30.20F WCI  26
LORAIN-ELYRIA  FAIR      34  26  72 VRB3      30.19F
ASHTABULA      CLOUDY    38  30  73 SW8       30.20S
AKRON-CANTON   FAIR      34  27  75 S7        30.22S WCI  28
WOOSTER        FAIR      31  29  92 CALM      30.22S
MANSFIELD      FAIR      35  28  75 S7        30.19F WCI  29
YOUNGSTOWN     FAIR      33  28  81 S5        30.21F WCI  29
$$

OHZ042-051>053-060>062-070>072-077>081-220200-
  SOUTHWEST OHIO

CITY           SKY/WX    TMP DP  RH WIND       PRES   REMARKS
CINC-COVINGTON FAIR      39  32  76 S6        30.24F
CINC-LUNKEN    FAIR      38  36  92 CALM      30.27F
HAMILTON       FAIR      34  30  85 CALM      30.25F
DAYTON         FAIR      41  30  65 S7        30.22F
WRIGHT-PAT AFB FAIR      39  30  69 S6        30.22F
DAYTON GENERAL FAIR      40  30  67 S6        30.22F
WILMINGTON     FAIR      36  30  79 S3        30.23F
$$

OHZ036-037-039>041-045>050-054>059-063>069-073>076-082>088-220200-
  CENTRAL AND SOUTHEAST OHIO

CITY           SKY/WX    TMP DP  RH WIND       PRES   REMARKS
COLUMBUS       FAIR      42  29  59 SW3       30.24S
OSU AIRPORT    FAIR      39  30  70 S5        30.23F
BOLTON FIELD   FAIR      36  30  77 SW5       30.24S
RICKENBACK AFB FAIR      38  29  70 SW6       30.24F
NEWARK         FAIR      35  30  82 CALM      30.23F
MARION         FAIR      37  29  72 S5        30.22S
LANCASTER      FAIR      36  30  79 CALM      30.25F
ZANESVILLE     FAIR      35  29  78 S5        30.24F
NEW PHILLY     NOT AVBL
$$


ASUS41 KCLE 220110
RWRCLE
OHIO REGIONAL WEATHER ROUNDUP
NATIONAL WEATHER SERVICE WILMINGTON, OH
900 PM EDT SUN OCT 21 2018

NOTE: "FAIR" INDICATES FEW OR NO CLOUDS BELOW 12,000 FEET WITH NO
SIGNIFICANT WEATHER AND/OR OBSTRUCTIONS TO VISIBILITY.

OHZ001>008-015>018-024>027-034-035-043-044-220200-
   NORTHWEST OHIO

CITY           SKY/WX    TMP DP  RH WIND       PRES   REMARKS
DEFIANCE       FAIR      38  30  73 S5        30.17F
FINDLAY        FAIR      35  29  78 S8        30.17F WCI  29
TOLEDO EXPRESS FAIR      38  30  73 S5        30.16F
TOLEDO EXEC    FAIR      37  30  75 S6        30.18F
LIMA           FAIR      38  30  73 S7        30.19F
$$

OHZ009>014-019>023-028>033-038-089-220200-
   NORTHEAST OHIO

CITY           SKY/WX    TMP DP  RH WIND       PRES   REMARKS
CLE-HOPKINS    FAIR      35  30  82 S8        30.21F WCI  29
CLE-LAKEFRONT  FAIR      38  28  67 SE12      30.19F
CUY CO. ARPT   PTCLDY    34  30  86 S9        30.20F WCI  26
LORAIN-ELYRIA  FAIR      34  26  72 VRB3      30.19F
ASHTABULA      CLOUDY    38  30  73 SW8       30.20S
AKRON-CANTON   FAIR      34  27  75 S7        30.22S WCI  28
WOOSTER        FAIR      31  29  92 CALM      30.22S
MANSFIELD      FAIR      35  28  75 S7        30.19F WCI  29
YOUNGSTOWN     FAIR      33  28  81 S5        30.21F WCI  29
$$

OHZ042-051>053-060>062-070>072-077>081-220200-
  SOUTHWEST OHIO

CITY           SKY/WX    TMP DP  RH WIND       PRES   REMARKS
CINC-COVINGTON FAIR      39  32  76 S6        30.24F
CINC-LUNKEN    FAIR      38  36  92 CALM      30.27F
HAMILTON       FAIR      34  30  85 CALM      30.25F
DAYTON         FAIR      41  30  65 S7        30.22F
WRIGHT-PAT AFB FAIR      39  30  69 S6        30.22F
DAYTON GENERAL FAIR      40  30  67 S6        30.22F
WILMINGTON     FAIR      36  30  79 S3        30.23F
$$

OHZ036-037-039>041-045>050-054>059-063>069-073>076-082>088-220200-
  CENTRAL AND SOUTHEAST OHIO

CITY           SKY/WX    TMP DP  RH WIND       PRES   REMARKS
COLUMBUS       FAIR      42  29  59 SW3       30.24S
OSU AIRPORT    FAIR      39  30  70 S5        30.23F
BOLTON FIELD   FAIR      36  30  77 SW5       30.24S
RICKENBACK AFB FAIR      38  29  70 SW6       30.24F
NEWARK         FAIR      35  30  82 CALM      30.23F
MARION         FAIR      37  29  72 S5        30.22S
LANCASTER      FAIR      36  30  79 CALM      30.25F
ZANESVILLE     FAIR      35  29  78 S5        30.24F
NEW PHILLY     FAIR      33  30  88 CALM      30.24S
$$


ASUS41 KCLE 220112
RWRCLE
OHIO REGIONAL WEATHER ROUNDUP
NATIONAL WEATHER SERVICE WILMINGTON, OH
900 PM EDT SUN OCT 21 2018

NOTE: "FAIR" INDICATES FEW OR NO CLOUDS BELOW 12,000 FEET WITH NO
SIGNIFICANT WEATHER AND/OR OBSTRUCTIONS TO VISIBILITY.

OHZ001>008-015>018-024>027-034-035-043-044-220200-
   NORTHWEST OHIO

CITY           SKY/WX    TMP DP  RH WIND       PRES   REMARKS
DEFIANCE       FAIR      38  30  73 S5        30.17F
FINDLAY        FAIR      35  29  78 S8        30.17F WCI  29
TOLEDO EXPRESS FAIR      38  30  73 S5        30.16F
TOLEDO EXEC    FAIR      37  30  75 S6        30.18F
LIMA           FAIR      38  30  73 S7        30.19F
$$

OHZ009>014-019>023-028>033-038-089-220200-
   NORTHEAST OHIO

CITY           SKY/WX    TMP DP  RH WIND       PRES   REMARKS
CLE-HOPKINS    FAIR      35  30  82 S8        30.21F WCI  29
CLE-LAKEFRONT  FAIR      38  28  67 SE12      30.19F
CUY CO. ARPT   PTCLDY    34  30  86 S9        30.20F WCI  26
LORAIN-ELYRIA  FAIR      34  26  72 VRB3      30.19F
ASHTABULA      CLOUDY    38  30  73 SW8       30.20S
AKRON-CANTON   FAIR      34  27  75 S7        30.22S WCI  28
WOOSTER        FAIR      31  29  92 CALM      30.22S
MANSFIELD      FAIR      35  28  75 S7        30.19F WCI  29
YOUNGSTOWN     FAIR      33  28  81 S5        30.21F WCI  29
$$

OHZ042-051>053-060>062-070>072-077>081-220200-
  SOUTHWEST OHIO

CITY           SKY/WX    TMP DP  RH WIND       PRES   REMARKS
CINC-COVINGTON FAIR      39  32  76 S6        30.24F
CINC-LUNKEN    FAIR      38  36  92 CALM      30.27F
HAMILTON       FAIR      34  30  85 CALM      30.25F
DAYTON         FAIR      41  30  65 S7        30.22F
WRIGHT-PAT AFB FAIR      39  30  69 S6        30.22F
DAYTON GENERAL FAIR      40  30  67 S6        30.22F
WILMINGTON     FAIR      36  30  79 S3        30.23F
$$

OHZ036-037-039>041-045>050-054>059-063>069-073>076-082>088-220200-
  CENTRAL AND SOUTHEAST OHIO

CITY           SKY/WX    TMP DP  RH WIND       PRES   REMARKS
COLUMBUS       FAIR      42  29  59 SW3       30.24S
OSU AIRPORT    FAIR      39  30  70 S5        30.23F
BOLTON FIELD   FAIR      36  30  77 SW5       30.24S
RICKENBACK AFB FAIR      38  29  70 SW6       30.24F
NEWARK         FAIR      35  30  82 CALM      30.23F
MARION         FAIR      37  29  72 S5        30.22S
LANCASTER      FAIR      36  30  79 CALM      30.25F
ZANESVILLE     FAIR      35  29  78 S5        30.24F
NEW PHILLY     FAIR      33  30  88 CALM      30.24S
$$